Current Weather Conditions: station ENSL

sailwx.info

See reports from other nearby stations

no recent reports received from weather station ID ENSL

Tides Pressure Air temp Water temp Dewpoint Dewpoint depression Visibility Wind speed Wind direction Waves Ship positions
date/time (UTC)wind fromknots sea level pressurealtimeterstation pressurevisibilityair tempwater tempwave heightnotes
2017-Jan-18 17:20 260 20 5.4 9.0
2017-Jan-18 16:50 260 20 5.4 9.0
2017-Jan-18 16:20 260 20 5.4 9.0
2017-Jan-18 15:50 250 20 5.4 9.0
2017-Jan-18 15:20 250 19 5.4 9.0
2017-Jan-18 14:50 260 20 5.4 9.0
2017-Jan-18 14:20 250 15 5.4 9.0
2017-Jan-18 13:50 250 18 5.4 9.0
2017-Jan-18 13:20 260 22 5.4 9.0
2017-Jan-18 12:50 260 21 5.4 9.0
2017-Jan-18 12:20 250 22 5.4 9.0
2017-Jan-18 11:50 260 20 5.4 9.0
2017-Jan-18 11:20 260 21 5.4 9.0
2017-Jan-18 10:50 250 20 5.4 9.0
2017-Jan-18 10:20 250 20 5.4 9.0
2017-Jan-18 09:50 250 20 5.4 9.0
2017-Jan-18 09:20 250 21 5.4 9.0
2017-Jan-18 08:50 250 20 5.4 9.0
2017-Jan-18 08:20 250 18 5.4 9.0
2017-Jan-18 07:50 260 18 5.4 9.0
2017-Jan-18 07:20 260 20 5.4 8.0
2017-Jan-18 06:50 260 18 5.4 8.0
2017-Jan-18 06:20 270 20 5.4 8.0 Patches of fog.
2017-Jan-18 05:50 260 18 0.1 8.0 Fog.
2017-Jan-18 05:20 250 18 0.4 8.0 Fog.
2017-Jan-18 04:50 270 20 5.4 9.0
2017-Jan-18 04:20 270 21 5.4 8.0 Light rain.
2017-Jan-18 03:50 260 19 0.1 8.0 Light rain. Fog.
2017-Jan-18 03:20 240 19 0.1 8.0 Light rain showers. Fog.
2017-Jan-18 02:50 220 19 0.1 8.0 Fog.
2017-Jan-18 02:20 200 19 0.1 8.0 Fog.
2017-Jan-18 01:50 210 18 0.1 8.0 Light rain showers.
2017-Jan-18 01:20 210 13 5.4 9.0
2017-Jan-18 00:50 200 13 5.4 9.0
2017-Jan-18 00:20 220 12 5.4 9.0
2017-Jan-17 23:50 250 12 5.4 9.0
2017-Jan-17 23:20 250 12 5.4 9.0
2017-Jan-17 22:50 280 12 5.4 9.0
2017-Jan-17 22:20 280 15 5.4 9.0
2017-Jan-17 21:50 250 17 5.4 9.0
2017-Jan-17 21:20 260 17 5.4 9.0
2017-Jan-17 20:50 240 19 5.4 9.0
2017-Jan-17 20:20 230 14 5.4 9.0 Light rain.
2017-Jan-17 19:50 230 13 5.4 9.0
2017-Jan-17 19:20 170 7 5.4 9.0 Light rain showers.
2017-Jan-17 18:50 230 12 5.4 9.0
2017-Jan-17 18:20 230 6 5.4 9.0
2017-Jan-17 17:50 250 9 5.4 9.0
2017-Jan-17 17:20 240 8 5.4 9.0
2017-Jan-17 16:50 270 8 5.4 9.0
2017-Jan-17 16:20 270 13 5.4 9.0
2017-Jan-17 15:50 270 17 5.4 9.0
2017-Jan-17 15:20 260 15 4.9 9.0
2017-Jan-17 14:50 260 18 4.9 9.0
2017-Jan-17 14:20 250 18 3.8 9.0
2017-Jan-17 13:50 250 18 3.2 9.0
2017-Jan-17 13:20 250 20 2.7 9.0
2017-Jan-17 12:50 240 20 2.7 9.0
2017-Jan-17 12:20 240 21 2.2 9.0 Mist.
2017-Jan-17 11:50 230 21 1.6 9.0 Mist.
2017-Jan-17 11:20 230 22 1.1 9.0 Mist.
2017-Jan-17 10:50 230 24 1.1 9.0 Light drizzle. Mist.
2017-Jan-17 10:20 230 22 0.8 8.0 Mist.
2017-Jan-17 09:50 230 24 0.4 8.0 Light drizzle. Fog.
2017-Jan-17 09:20 230 25 0.5 8.0 Light drizzle. Fog.
2017-Jan-17 08:50 220 25 0.6 8.0 Light drizzle. Mist.
2017-Jan-17 08:20 220 25 0.4 8.0 Light drizzle. Fog.
2017-Jan-17 07:50 220 27 0.5 8.0 Light drizzle. Fog.
2017-Jan-17 07:20 220 26 0.6 8.0 Mist.
2017-Jan-17 06:50 220 26 2.7 8.0
2017-Jan-17 06:20 220 27 2.2 8.0 Mist.
2017-Jan-17 05:50 210 26 3.2 8.0
2017-Jan-17 05:20 210 25 1.0 8.0 Mist.
2017-Jan-17 04:50 210 25 4.3 8.0
2017-Jan-17 04:20 210 26 5.4 8.0
2017-Jan-17 03:50 220 24 4.3 8.0
2017-Jan-17 03:20 220 26 4.9 7.0
2017-Jan-17 02:50 220 26 4.9 8.0
2017-Jan-17 02:20 220 26 5.4 8.0
2017-Jan-17 01:50 220 26 5.4 8.0
2017-Jan-17 01:20 210 26 5.4 8.0
2017-Jan-17 00:50 210 27 1.9 7.0 Light rain showers. Mist.
2017-Jan-17 00:20 210 27 1.0 7.0 Light rain showers. Mist.
2017-Jan-16 23:50 210 27 1.1 7.0 Light rain showers. Mist.
2017-Jan-16 23:20 210 27 1.3 7.0 Light rain. Mist.
2017-Jan-16 22:50 210 28 4.9 7.0
2017-Jan-16 22:20 210 27 2.3 7.0 Light rain showers. Mist.
2017-Jan-16 21:50 210 29 1.0 7.0 Light rain showers. Mist.
2017-Jan-16 21:20 200 28 1.0 7.0 Light rain showers. Mist.
2017-Jan-16 20:50 200 27 1.3 7.0 Mist.
2017-Jan-16 20:20 200 27 2.7 7.0 Light rain showers.
2017-Jan-16 19:50 200 27 2.7 7.0 Light rain showers.
2017-Jan-16 19:20 200 26 1.6 7.0 Light rain showers. Mist.
2017-Jan-16 18:50 200 25 2.2 7.0 Light rain showers. Mist.
2017-Jan-16 18:20 190 25 2.7 6.0